Laoag, Philippines

12:20 AM +08 on May 01, 2017 (GMT +0800)
Laoag International

Weather History for RPLI - February, 2013

Change the Weather History Date:

Wednesday, February 13, 2013

  Actual Average Record
Temperature  
Mean Temperature 80 °F -  
Max Temperature 88 °F - - ()
Min Temperature 71 °F - - ()
Cooling Degree Days 14    
Growing Degree Days 30 (Base 50)    
Moisture  
Dew Point 75 °F    
Average Humidity 82    
Maximum Humidity 100    
Minimum Humidity 65    
Precipitation  
Precipitation 0.00 in - - ()
Sea Level Pressure  
Sea Level Pressure 29.87 in    
Wind  
Wind Speed 4 mph ()    
Max Wind Speed 12 mph    
Max Gust Speed -    
Visibility 6.3 miles    
Events      
T = Trace of Precipitation, MM = Missing Value Source: Averaged Metar Reports

Daily Weather History Graph

Daily Weather History Graph

Search for Another Location

Airport or City:

Trip Planner

Search our weather history database for the weather conditions in past years. The results will help you decide how hot, cold, wet, or windy it might be!

Date:

Astronomy

Feb. 13, 2013 Rise Set
Actual Time 6:26 AM +08 5:57 PM +08
Civil Twilight 6:04 AM +08 6:20 PM +08
Nautical Twilight 5:38 AM +08 6:46 PM +08
Astronomical Twilight 5:12 AM +08 7:11 PM +08
Moon 8:11 AM +08 (2/13) 8:45 PM +08 (2/13)
Length of Visible Light 12h 16m
Length of Day
11h 31m
Waxing Crescent, 10% of the Moon is Illuminated
Feb 13
Waxing Crescent
Feb 18
First Quarter
Feb 26
Full
Mar 5
Last Quarter
Mar 12
New

Hourly Weather History & Observations

Time (+08) Temp. Heat Index Dew Point Humidity Pressure Visibility Wind Dir Wind Speed Gust Speed Precip Events Conditions
2:00 AM 73 °F - 72 °F 96% 29.89 in 7 mi East 2.2 mph - -   Scattered Clouds
5:00 AM 72 °F - 71 °F 97% 29.87 in 6 mi ESE 2.2 mph - -   Scattered Clouds
6:00 AM 71.6 °F - 71.6 °F 100% 29.86 in 6.2 mi East 4.6 mph - N/A   Partly Cloudy
7:00 AM 71.6 °F - 69.8 °F 94% 29.86 in - NE 2.3 mph - N/A   Haze
8:00 AM 75 °F - 71 °F 83% 29.93 in 5 mi East 2.2 mph - -   Haze
8:00 AM 75.2 °F - 71.6 °F 89% 29.92 in 5.0 mi East 2.3 mph - N/A   Haze
9:00 AM 80.6 °F 86.2 °F 75.2 °F 84% 29.92 in 6.2 mi ESE 4.6 mph - N/A   Partly Cloudy
10:00 AM 82.4 °F 89.5 °F 75.2 °F 79% 29.92 in 6.2 mi WSW 4.6 mph - N/A   Scattered Clouds
11:00 AM 85 °F - 75 °F 65% 29.92 in 7 mi West 8.9 mph - -   Haze
11:00 AM 84.2 °F 92.3 °F 75.2 °F 74% 29.92 in 6.2 mi West 9.2 mph - N/A   Partly Cloudy
12:00 PM 86.0 °F 95.1 °F 75.2 °F 70% 29.89 in 6.2 mi WNW 11.5 mph - N/A   Partly Cloudy
1:00 PM 86.0 °F 96.9 °F 77.0 °F 74% 29.86 in 6.2 mi NNW 11.5 mph - N/A   Partly Cloudy
2:00 PM 86 °F - 77 °F 68% 29.85 in 7 mi NNW 11.2 mph - -   Haze
2:00 PM 86.0 °F 96.9 °F 77.0 °F 74% 29.83 in 6.2 mi NNW 11.5 mph - N/A   Scattered Clouds
3:00 PM 87.8 °F 99.7 °F 77.0 °F 70% 29.80 in 6.2 mi WSW 9.2 mph - N/A   Partly Cloudy
5:00 PM 86 °F - 78 °F 73% 29.79 in 7 mi SW 6.7 mph - -   Haze
5:00 PM 86.0 °F 99.3 °F 78.8 °F 79% 29.77 in 6.2 mi SW 6.9 mph - N/A   Partly Cloudy
8:00 PM 79 °F - 76 °F 87% 29.85 in 7 mi South 2.2 mph - -   Partly Cloudy
11:00 PM 75 °F - 73 °F 93% 29.89 in 7 mi Calm Calm - -   Scattered Clouds